Weather History for GMMC - December, 2012

Change the Weather History Date:

Sunday, December 9, 2012

  Actual Average (GMMN) Record (GMMN)
Temperature  
Mean Temperature 56 °F -  
Max Temperature 62 °F 62 °F 86 °F (2010)
Min Temperature 50 °F 44 °F 35 °F (1998)
Degree Days  
Heating Degree Days 9    
Growing Degree Days 6 (Base 50)    
Moisture  
Dew Point 54 °F    
Average Humidity 91    
Maximum Humidity 100    
Minimum Humidity 71    
Precipitation  
Precipitation 0.00 in 0.10 in - ()
Sea Level Pressure  
Sea Level Pressure 30.14 in    
Wind  
Wind Speed 2 mph ()    
Max Wind Speed 5 mph    
Max Gust Speed -    
Visibility 2.7 miles    
Events Fog    
Averages and records for this station are not official NWS values.
T = Trace of Precipitation, MM = Missing Value Source: Averaged Metar Reports

Daily Weather History Graph

Daily Weather History Graph

Search for Another Location

Airport or City:

Trip Planner

Search our weather history database for the weather conditions in past years. The results will help you decide how hot, cold, wet, or windy it might be!

Date:

Astronomy

Dec. 09, 2012 Rise Set
Actual Time 7:23 AM WET 5:22 PM WET
Civil Twilight 6:56 AM WET 5:50 PM WET
Nautical Twilight 6:25 AM WET 6:21 PM WET
Astronomical Twilight 5:54 AM WET 6:51 PM WET
Moon 2:50 AM WET (12/9) 2:12 PM WET (12/9)
Length of Visible Light 10h 54m
Length of Day
9h 59m
Waning Crescent, 20% of the Moon is Illuminated
Dec 9
Waning Crescent
Dec 13
New
Dec 20
First Quarter
Dec 28
Full
Jan 5
Last Quarter

Hourly Weather History & Observations

Time (WET) Temp. Dew Point Humidity Pressure Visibility Wind Dir Wind Speed Gust Speed Precip Events Conditions
12:00 AM 56 °F 55 °F 95% 30.19 in 0 mi Calm Calm - - Fog Patches of Fog
12:00 AM 55.4 °F 55.4 °F 100% 30.15 in 0.5 mi Calm Calm - N/A Fog Patches of Fog
2:00 AM 55.4 °F 55.4 °F 100% 30.15 in 0.5 mi South 2.3 mph - N/A Fog Patches of Fog
3:00 AM 54 °F 54 °F 100% 30.18 in 0 mi South 2.3 mph - - Fog Heavy Fog
3:00 AM 53.6 °F 53.6 °F 100% 30.15 in 0.5 mi South 2.3 mph - N/A Fog Fog
4:00 AM 53.6 °F 53.6 °F 100% 30.15 in 3.7 mi South 2.3 mph - N/A   Unknown
5:00 AM 53.6 °F 51.8 °F 94% 30.12 in 3.7 mi South 2.3 mph - N/A   Unknown
6:00 AM 52 °F 51 °F 97% 30.17 in 4 mi South 2.3 mph - -   Scattered Clouds
6:00 AM 51.8 °F 51.8 °F 100% 30.12 in 3.7 mi South 2.3 mph - N/A   Unknown
7:00 AM 50.0 °F 50.0 °F 100% 30.12 in 3.7 mi Calm Calm - N/A   Unknown
8:00 AM 51.8 °F 50.0 °F 94% 30.15 in 3.1 mi ESE 4.6 mph - N/A   Unknown
9:00 AM 53 °F 51 °F 92% 30.19 in 3 mi SE 2.3 mph - -   Scattered Clouds
9:00 AM 53.6 °F 51.8 °F 94% 30.15 in 3.1 mi SE 2.3 mph - N/A   Unknown
10:00 AM 57.2 °F 53.6 °F 88% 30.15 in 3.1 mi ESE 4.6 mph - N/A   Unknown
11:00 AM 59.0 °F 53.6 °F 82% 30.15 in 3.1 mi ESE 4.6 mph - N/A   Unknown
12:00 PM 60 °F 55 °F 78% 30.19 in 3 mi West 2.3 mph - -   Scattered Clouds
12:00 PM 60.8 °F 55.4 °F 82% 30.15 in 3.1 mi West 2.3 mph - N/A   Unknown
1:00 PM 60.8 °F 55.4 °F 82% 30.12 in 3.1 mi North 2.3 mph - N/A   Unknown
2:00 PM 62.6 °F 55.4 °F 77% 30.12 in 3.1 mi North 2.3 mph - N/A   Unknown
3:00 PM 62 °F 55 °F 71% 30.14 in 3 mi NE 2.3 mph - -   Scattered Clouds
3:00 PM 62.6 °F 55.4 °F 77% 30.12 in 3.1 mi NE 2.3 mph - N/A   Unknown
4:00 PM 62.6 °F 57.2 °F 82% 30.09 in 3.7 mi NNE 2.3 mph - N/A   Unknown
5:00 PM 60.8 °F 57.2 °F 88% 30.09 in 3.7 mi NE 2.3 mph - N/A   Unknown
6:00 PM 60 °F 57 °F 87% 30.16 in 4 mi NE 2.3 mph - -   Clear
6:00 PM 60.8 °F 57.2 °F 88% 30.12 in 3.7 mi NE 2.3 mph - N/A   Unknown
7:00 PM 59.0 °F 55.4 °F 88% 30.12 in 3.7 mi East 2.3 mph - N/A   Unknown
9:00 PM 57 °F 55 °F 91% 30.17 in 4 mi East 2.3 mph - -   Clear
9:00 PM 57.2 °F 55.4 °F 94% 30.12 in 3.7 mi East 2.3 mph - N/A   Unknown
10:00 PM 55.4 °F 55.4 °F 100% 30.12 in 3.1 mi SSE 2.3 mph - N/A   Unknown
10:40 PM 55.4 °F 53.6 °F 94% 30.12 in 1.2 mi SSE 4.6 mph - N/A   Mist
11:00 PM 55.4 °F 53.6 °F 94% 30.12 in 1.2 mi SSE 4.6 mph - N/A   Mist
11:40 PM 55.4 °F 53.6 °F 94% 30.12 in 0.3 mi SSE 4.6 mph - N/A Fog Fog